Weather in Melikhovskaya

Russia / Rostov Oblast     47°28′46″N   40°29′23″E
temp.,
°C
wind,
m/s
gust,
m/s
humid.,
%
clouds,
%
prec.,
mm/h
press.,
hPa
HPBL,
m
23 june, wed
wed2300:00+23ene4847100 0.0 1012128
03:00+21e224395 0.0 101322
06:00+21ne335861 0.0 101431
09:00+27ne57475 0.0 1014314
12:00+31ne67413 0.0 1013692
15:00+34ene48350 0.0 10121418
18:00+31ne59531 0.0 1010190
21:00+26ene51052100 0.0 1011158
24 june, thu
thu2400:00+26e61234100 0.0 1012260
03:00+22e4843100 0.0 1013123
06:00+20ene5959100 0.0 1014145
09:00+25e4649100 0.0 1015315
12:00+28ene4847100 0.0 1015476
15:00+32e4736100 0.0 10141398
18:00+30n4752100 0.0 1013135
21:00+25nne510470 0.0 1012145
25 june, fri
fri2500:00+24ne613415 0.0 1011192
03:00+21ene46420 0.0 101285
06:00+21e37560 0.0 1012117
09:00+27ese47430 0.0 1012350
12:00+31ese4533100 0.0 10121030
15:00+33e3529100 0.0 10111656
18:00+28n2245100 0.0 101014
21:00+26n454069 0.0 101056
26 june, sat
sat2600:00+22n466023 0.6 100865
03:00+21ne497451 0.8 1008144
06:00+22ne236620 0.0 100954
09:00+28e4649100 0.0 1009541
12:00+30e3344100 0.0 10091170
15:00+30sse3452100 0.0 1008625
18:00+30s2358100 0.0 1009117
21:00+23wnw377999 0.0 1009123
27 june, sun
sun2700:00+22wsw3483100 0.0 100958
03:00+21w4990100 0.0 1009197
06:00+22w4888100 0.0 1010262
09:00+26w6770100 0.0 1010501
12:00+30w555879 0.0 10101167
15:00+31wsw555590 0.0 10101591
18:00+27wsw696962 2.1 1010531
21:00+22wsw412865 4.0 1010314